Terug naar catalogus

STARLINK-37908

ActiefCommunicatieSSO
NORAD 69688·PAYLOAD·🇺🇸 United States

Gelanceerd Jun 25, 2026 vanaf Vandenberg Space Force Base

Loading…

Volgende Passages (komende 24 uur)

TLE

VersSource: CelesTrak SupGP

Epoch: Sep 14, 2026, 21:23 UTC

1 69688C 26145M   26257.89145833  .00062409  00000+0  19383-2 0  2571
2 69688  97.2843 104.6411 0001762  93.7674 278.8081 15.33391611    19

Volg STARLINK-37908 in realtime met AllMySat

Download on the App Store